[[{"header":{"parameterUnit":"m.s-1","parameterCategory":1,"la1":30.2991,"la2":30.254,"lo1":-89.0895,"lo2":-89.0444,"dy":0.0017,"dx":0.0017,"nx":28,"ny":28,"refTime":"2024-06-19T21:00:00:Z","depth":0,"parameterNumber":2,"parameterNumberName":"U-component_of_WINDS"},"data":[0,0,0,0,0,0,0,0,0,0,0,0,0,0,0,0,0,0,0,0,0,0,0,0,0,0,0,0,0,0,0,0,0,0,0,0,0,0,0,0,0,0,0,0,0,0,0,0,0,0,0,0,0,0,0,0,0,0,-7.9087,-7.9087,0,-7.9057,-7.9056,-7.9056,-7.8823,-7.8818,-7.8812,-7.8806,-7.8782,-7.8787,-7.8791,0,0,0,0,0,0,0,0,0,0,0,0,0,-7.8952,-7.8956,-7.9087,-7.9087,-7.9086,-7.9057,-7.9056,-7.9056,-7.8824,-7.8817,-7.881,-7.8804,-7.8781,-7.8786,-7.8792,0,0,0,0,0,0,0,0,0,0,0,0,0,-7.8976,-7.8957,-7.9087,-7.8967,-7.8956,-7.9057,-7.9056,-7.9056,-7.8826,-7.8817,-7.8809,-7.8801,-7.8779,-7.8786,-7.8793,-7.9008,0,0,-7.8814,-7.8817,0,0,0,0,0,0,0,0,-7.8975,-7.8981,-7.8985,-7.8975,-7.8963,-7.8935,-7.8999,-7.904,-7.8828,-7.8876,-7.8806,-7.8796,-7.884,-7.8842,-7.8855,-7.9007,-7.9006,-7.8815,-7.8819,-7.8822,-7.8824,0,0,0,0,0,0,0,-7.8973,-7.8981,-7.9075,-7.8985,-7.8972,-7.8917,-7.8911,-7.9006,-7.8907,-7.8871,-7.8854,-7.8853,-7.8833,-7.8849,-7.8853,-7.9006,-7.8815,-7.8821,-7.8825,-7.8828,-7.9337,-7.9346,0,0,0,0,0,0,-7.8987,-7.8981,-7.9076,-7.9074,-7.8948,-7.8927,-7.892,-7.8953,-7.8905,-7.8889,-7.886,-7.8842,-7.8841,-7.8845,-7.8851,-7.9103,-7.8822,-7.8829,-7.8833,-7.9328,-7.9339,-7.9349,0,0,0,0,0,0,-7.8985,-7.8998,-7.9077,-7.9023,-7.9029,-7.8938,-7.8977,-7.8957,-7.8972,-7.8897,-7.8879,-7.8895,-7.8835,-7.8841,-7.8971,-7.9098,-7.8832,-7.8838,-7.9317,-7.9331,-7.9344,-7.9607,0,0,0,0,0,0,-7.8982,-7.8999,-7.9078,-7.9026,-7.9033,-7.9196,-7.8985,-7.8962,-7.8984,-7.896,-7.8925,-7.891,-7.8828,-7.8962,-7.8978,-7.9103,-7.8844,-7.9305,-7.9323,-7.9339,-7.9586,-7.9628,-7.9664,0,0,0,0,0,-7.8978,-7.9154,-7.9083,-7.9096,-7.9129,-7.9204,-7.9208,-7.9108,-7.8996,-7.9076,-7.9028,-7.8912,-7.9082,-7.8977,-7.8994,-7.9123,-7.9296,-7.9318,-7.9338,-7.9569,-7.962,-7.9663,0,0,0,0,0,0,-7.9224,-7.9145,-7.9065,-7.9229,-7.9225,-7.9164,-7.9262,-7.9164,-7.9194,-7.917,-7.9047,-7.9041,-7.9191,-7.9169,-7.9054,-7.9331,-7.9169,-7.9195,-7.9339,-7.9387,-7.9425,-7.9428,-7.885,0,0,0,0,0,-7.9297,-7.9362,-7.929,-7.9442,-7.9443,-7.9355,-7.9383,-7.9306,-7.9298,-7.9296,-7.9257,-7.9256,-7.9308,-7.9346,-7.939,-7.9582,-7.9573,-7.9679,-7.9718,-7.975,-7.9774,-7.9876,-7.9924,-7.9417,-7.9417,-7.9417,0,0,-7.945,-7.9414,-7.9463,-7.949,-7.9478,-7.9551,-7.9354,-7.9439,-7.9493,-7.9309,-7.9429,-7.9402,-7.9392,-7.9555,-7.9624,-7.9541,-7.9911,-7.9776,-7.9803,-7.9809,-7.9903,-7.9951,-7.9994,-7.9432,-7.9429,-7.9427,0,0,-7.9764,-7.9743,-7.9867,-7.9859,-7.9843,-7.9782,-7.9813,-7.9768,-7.9742,-7.986,-7.9725,-7.9788,-7.9882,-7.9881,-7.9893,-8.0211,-8.0106,-8.0229,-8.0431,-8.0533,-8.0573,-8.0607,-8.0723,-8.0766,-8.0252,-8.0253,-8.0253,0,-7.9956,-8.0057,-7.9945,-8.0039,-8.0056,-7.9892,-8.0019,-8.0017,-8.0018,-8.0035,-7.9942,-8.0057,-8.0039,-8.02,-8.0278,-8.0292,-8.0326,-8.0233,-8.0575,-8.0609,-8.064,-8.0749,-8.0793,-8.0268,-8.0266,-8.0265,-8.0263,0,-8.0295,-8.0369,-8.0472,-8.0475,-8.0504,-8.0615,-8.0521,-8.0565,-8.0487,-8.0438,-8.0562,-8.0535,-8.0572,-8.0604,-8.0529,-8.0757,-8.0706,-8.0597,-8.0432,-8.0706,-8.0806,-8.0847,-8.029,-8.0284,-8.028,-8.0276,0,0,-8.0764,-8.0703,-8.0744,-8.0744,-8.0715,-8.0771,-8.0875,-8.091,-8.0951,-8.0958,-8.1044,-8.1128,-8.1027,-8.1041,-8.0965,-8.1054,-8.1311,-8.0933,-8.0931,-8.1006,-8.1563,-8.1648,-8.1698,-8.124,-8.1248,-8.1254,-8.1565,0,-8.1068,-8.124,-8.1143,-8.1331,-8.1399,-8.1245,-8.1337,-8.1331,-8.1289,-8.1342,-8.1295,-8.1358,-8.1218,-8.1226,-8.1307,-8.1262,-8.1421,-8.1238,-8.1323,-8.1328,-8.1332,-8.175,-8.1838,-8.2133,-8.1603,-8.161,-8.1614,0,-8.1445,-8.1466,-8.1661,-8.1621,-8.1646,-8.173,-8.1755,-8.1807,-8.1799,-8.1762,-8.1779,-8.1682,-8.1785,-8.1622,-8.1764,-8.1642,-8.1671,-8.1655,-8.1664,-8.167,-8.1489,-8.1769,-8.2224,-8.227,-8.1675,-8.167,-8.1666,0,-8.177,-8.1848,-8.1975,-8.198,-8.1935,-8.1999,-8.1984,-8.1966,-8.1994,-8.2017,-8.2035,-8.2071,-8.2092,-8.2123,-8.204,-8.1928,-8.2195,-8.2024,-8.217,-8.2173,-8.2234,-8.2232,-8.2704,-8.2251,-8.225,-8.2249,-8.2248,0,-8.2121,-8.2247,-8.212,-8.2199,-8.2337,-8.2225,-8.2365,-8.2334,-8.232,-8.2392,-8.2262,-8.2333,-8.2217,-8.2278,-8.2213,-8.2343,-8.2353,-8.2328,-8.231,-8.2341,-8.2345,-8.236,-8.2338,-8.2261,-8.2258,-8.2256,-8.2254,0,-8.2508,-8.2428,-8.2556,-8.2504,-8.2494,-8.2599,-8.2555,-8.2627,-8.2575,-8.2669,-8.2685,-8.2605,-8.267,-8.2589,-8.2647,-8.2604,-8.2782,-8.2731,-8.2784,-8.2771,-8.2923,-8.2911,-8.3422,-8.3485,-8.299,-8.2995,-8.2999,0,-8.2737,-8.2831,-8.2788,-8.2826,-8.2819,-8.2882,-8.2909,-8.2804,-8.2839,-8.2837,-8.2911,-8.2964,-8.3001,-8.3113,-8.3063,-8.3107,-8.3059,-8.3235,-8.3065,-8.3094,-8.3065,-8.3061,-8.3071,-8.3271,-8.3277,-8.3281,-8.3285,0,-8.3155,-8.3111,-8.3155,-8.3187,-8.3223,-8.3244,-8.3254,-8.3294,-8.3184,-8.323,-8.3294,-8.3323,-8.3382,-8.3438,-8.3469,-8.3456,-8.3356,-8.3339,-8.3376,-8.3409,-8.3437,-8.3427,-8.2882,-8.3328,-8.3324,-8.3321,-8.3318,-8.3317,-8.3471,-8.3548,-8.3531,-8.3585,-8.3582,-8.3596,-8.3661,-8.3618,-8.3669,-8.3707,-8.3642,-8.3724,-8.3716,-8.3747,-8.3746,-8.381,-8.3735,-8.3787,-8.3801,-8.3816,-8.3841,-8.3426,-8.3815,-8.3814,-8.3813,-8.3812,-8.3811,0,-8.3884,-8.3866,-8.3917,-8.3935,-8.3979,-8.3877,-8.3884,-8.3929,-8.4001,-8.4001,-8.404,-8.4115,-8.417,-8.4124,-8.417,-8.423,-8.4186,-8.4246,-8.4242,-8.4241,-8.3904,-8.3869,-8.4282,-8.4282,-8.4282,-8.4282,-8.4282,-8.4282,-8.4104,-8.4229,-8.4184,-8.4308,-8.4288,-8.4366,-8.4379,-8.4393,-8.4392,-8.4481,-8.4525,-8.4494,-8.4477,-8.452,-8.4567,-8.4552,-8.4576,-8.4655,-8.4625,-8.4311,-8.4265,-8.4221,-8.4187,-8.466,-8.4661,-8.4956,-8.4959,-8.4961]},{"header":{"parameterUnit":"m.s-1","parameterCategory":1,"la1":30.2991,"la2":30.254,"lo1":-89.0895,"lo2":-89.0444,"dy":0.0017,"dx":0.0017,"nx":28,"ny":28,"refTime":"2024-06-19T21:00:00:Z","depth":0,"parameterNumber":3,"parameterNumberName":"V-component_of_WINDS"},"data":[0,0,0,0,0,0,0,0,0,0,0,0,0,0,0,0,0,0,0,0,0,0,0,0,0,0,0,0,0,0,0,0,0,0,0,0,0,0,0,0,0,0,0,0,0,0,0,0,0,0,0,0,0,0,0,0,0,0,-1.8466,-1.8465,0,-1.8421,-1.842,-1.842,-1.8331,-1.8329,-1.8327,-1.8326,-1.8281,-1.8281,-1.8282,0,0,0,0,0,0,0,0,0,0,0,0,0,-1.8475,-1.8476,-1.8466,-1.8465,-1.8465,-1.8421,-1.842,-1.842,-1.8331,-1.8329,-1.8327,-1.8325,-1.8281,-1.8281,-1.8282,0,0,0,0,0,0,0,0,0,0,0,0,0,-1.8455,-1.8476,-1.8466,-1.8415,-1.841,-1.8421,-1.842,-1.8419,-1.8331,-1.8329,-1.8326,-1.8324,-1.828,-1.8281,-1.8282,-1.8339,0,0,-1.8284,-1.8284,0,0,0,0,0,0,0,0,-1.8456,-1.8455,-1.8423,-1.8419,-1.8413,-1.8379,-1.8407,-1.8392,-1.8332,-1.8361,-1.8326,-1.8322,-1.8316,-1.8313,-1.831,-1.8336,-1.8335,-1.8284,-1.8284,-1.8284,-1.8285,0,0,0,0,0,0,0,-1.8458,-1.8456,-1.8448,-1.8423,-1.8417,-1.8395,-1.8389,-1.8404,-1.8354,-1.8359,-1.8352,-1.8348,-1.8312,-1.831,-1.8309,-1.8334,-1.8284,-1.8284,-1.8285,-1.8285,-1.8403,-1.8405,0,0,0,0,0,0,-1.8466,-1.8458,-1.8449,-1.8447,-1.8429,-1.8397,-1.839,-1.8392,-1.8353,-1.8345,-1.835,-1.8344,-1.831,-1.8308,-1.8307,-1.837,-1.8284,-1.8285,-1.8285,-1.84,-1.8403,-1.8406,0,0,0,0,0,0,-1.8467,-1.8467,-1.8451,-1.845,-1.8447,-1.8399,-1.8403,-1.8393,-1.8391,-1.8347,-1.8338,-1.8357,-1.8308,-1.8306,-1.8331,-1.8368,-1.8285,-1.8286,-1.8397,-1.8401,-1.8405,-1.8498,0,0,0,0,0,0,-1.8468,-1.8467,-1.8489,-1.8452,-1.8447,-1.8477,-1.8405,-1.8394,-1.8392,-1.8383,-1.8351,-1.8343,-1.8306,-1.833,-1.8332,-1.8367,-1.8287,-1.8393,-1.8399,-1.8403,-1.8492,-1.8505,-1.8517,0,0,0,0,0,-1.8468,-1.8517,-1.849,-1.849,-1.8473,-1.8479,-1.8476,-1.8432,-1.8395,-1.8416,-1.8388,-1.8344,-1.8363,-1.8334,-1.8334,-1.8371,-1.8391,-1.8397,-1.8403,-1.8486,-1.8503,-1.8516,0,0,0,0,0,0,-1.8561,-1.8512,-1.8481,-1.8519,-1.8504,-1.8464,-1.8489,-1.8451,-1.8446,-1.8438,-1.8383,-1.8377,-1.8409,-1.8392,-1.836,-1.8423,-1.837,-1.8377,-1.8433,-1.8448,-1.846,-1.8464,-1.8287,0,0,0,0,0,-1.8586,-1.8594,-1.8551,-1.8589,-1.8583,-1.8537,-1.8538,-1.8505,-1.8487,-1.848,-1.8454,-1.8438,-1.844,-1.8443,-1.8443,-1.8488,-1.848,-1.8513,-1.8526,-1.8536,-1.8543,-1.8565,-1.8579,-1.8426,-1.8426,-1.8426,0,0,-1.8637,-1.8611,-1.862,-1.8607,-1.8591,-1.8601,-1.8533,-1.8547,-1.8554,-1.8482,-1.8504,-1.8484,-1.8463,-1.8499,-1.8513,-1.8485,-1.8583,-1.8544,-1.8552,-1.8553,-1.8573,-1.8587,-1.86,-1.8431,-1.843,-1.8429,0,0,-1.8737,-1.8718,-1.8747,-1.8732,-1.8708,-1.8678,-1.8685,-1.865,-1.8634,-1.8654,-1.8601,-1.8608,-1.8613,-1.86,-1.8594,-1.8686,-1.8646,-1.8688,-1.8753,-1.8775,-1.8787,-1.8797,-1.883,-1.8843,-1.8694,-1.8694,-1.8695,0,-1.8804,-1.8817,-1.8767,-1.8784,-1.878,-1.8714,-1.8744,-1.8731,-1.8709,-1.8708,-1.8677,-1.8681,-1.8662,-1.8693,-1.8715,-1.8713,-1.8719,-1.8692,-1.8789,-1.8799,-1.8808,-1.8839,-1.8851,-1.87,-1.8699,-1.8699,-1.8698,0,-1.8901,-1.8911,-1.8937,-1.8917,-1.8915,-1.8938,-1.8892,-1.8896,-1.8862,-1.8834,-1.8856,-1.8831,-1.8824,-1.8828,-1.8796,-1.8854,-1.8838,-1.8799,-1.8745,-1.8829,-1.8857,-1.8868,-1.8707,-1.8705,-1.8704,-1.8702,0,0,-1.906,-1.9009,-1.902,-1.9009,-1.8977,-1.8984,-1.9004,-1.8996,-1.9001,-1.8987,-1.9002,-1.9007,-1.897,-1.8963,-1.8928,-1.8948,-1.9022,-1.8906,-1.8905,-1.8929,-1.9085,-1.9115,-1.9129,-1.8995,-1.8997,-1.8998,-1.9086,0,-1.9152,-1.9183,-1.9138,-1.9179,-1.9187,-1.9124,-1.9141,-1.9123,-1.9098,-1.9101,-1.9072,-1.9076,-1.9027,-1.9023,-1.9039,-1.901,-1.9053,-1.9003,-1.9008,-1.9009,-1.9017,-1.9144,-1.9176,-1.9261,-1.9097,-1.9099,-1.91,0,-1.9265,-1.9256,-1.9298,-1.9262,-1.9264,-1.928,-1.9269,-1.9272,-1.925,-1.923,-1.9222,-1.918,-1.9196,-1.9143,-1.9165,-1.9132,-1.9131,-1.9117,-1.9119,-1.9119,-1.9061,-1.9147,-1.9286,-1.93,-1.9117,-1.9116,-1.9114,0,-1.9377,-1.9375,-1.9399,-1.9392,-1.9351,-1.9364,-1.9347,-1.9322,-1.932,-1.931,-1.9308,-1.93,-1.9296,-1.9291,-1.9248,-1.9213,-1.9275,-1.9218,-1.9259,-1.926,-1.9276,-1.9275,-1.9417,-1.9274,-1.9274,-1.9274,-1.9274,0,-1.9486,-1.9514,-1.9449,-1.9464,-1.9493,-1.944,-1.9471,-1.9448,-1.9426,-1.9435,-1.938,-1.939,-1.9333,-1.9336,-1.9303,-1.9325,-1.9324,-1.9308,-1.9299,-1.9314,-1.9316,-1.9313,-1.9306,-1.9277,-1.9276,-1.9276,-1.9275,0,-1.9616,-1.9574,-1.9596,-1.9555,-1.9545,-1.9568,-1.9533,-1.9545,-1.9514,-1.9527,-1.9527,-1.948,-1.9481,-1.9437,-1.943,-1.9407,-1.9445,-1.9425,-1.9452,-1.9446,-1.9489,-1.9486,-1.9635,-1.9652,-1.9498,-1.95,-1.9501,0,-1.9689,-1.9709,-1.9669,-1.9671,-1.9657,-1.9661,-1.9658,-1.9607,-1.9606,-1.9581,-1.9596,-1.9593,-1.9587,-1.9592,-1.9557,-1.9551,-1.9531,-1.9583,-1.953,-1.9543,-1.9532,-1.9532,-1.9533,-1.9595,-1.9597,-1.9599,-1.96,0,-1.9823,-1.9801,-1.9798,-1.9789,-1.9786,-1.9776,-1.9763,-1.9767,-1.971,-1.9712,-1.9712,-1.9708,-1.97,-1.9697,-1.9684,-1.9666,-1.9624,-1.9617,-1.9626,-1.9641,-1.9657,-1.9649,-1.9484,-1.9614,-1.9613,-1.9612,-1.9611,-1.961,-1.9927,-1.9942,-1.9915,-1.9914,-1.9898,-1.9886,-1.9895,-1.9866,-1.9865,-1.9854,-1.9823,-1.9828,-1.9804,-1.9782,-1.9768,-1.9771,-1.9745,-1.9758,-1.9761,-1.9766,-1.9774,-1.9655,-1.9768,-1.9768,-1.9767,-1.9767,-1.9767,0,-2.0058,-2.0038,-2.0037,-2.0019,-2.0018,-1.9977,-1.9959,-1.9962,-1.9967,-1.9947,-1.9943,-1.9942,-1.9939,-1.9903,-1.9895,-1.9904,-1.9885,-1.9904,-1.9903,-1.99,-1.9798,-1.9791,-1.992,-1.992,-1.992,-1.992,-1.992,-1.992,-2.0127,-2.0149,-2.0123,-2.0136,-2.0115,-2.0119,-2.0113,-2.0101,-2.0085,-2.0087,-2.0084,-2.006,-2.0034,-2.0023,-2.0018,-2.0007,-2.0007,-2.0033,-2.0017,-1.9922,-1.9907,-1.9893,-1.9886,-2.0034,-2.0034,-2.0118,-2.0119,-2.012]}]]